Content
SEND FEEDBACK

Daily
Averages
Monthly
Summary
United States of America

ALBION, IDAHO


Home > North America > United States > Idaho
Elevation: 4750 feet     Latitude: 42 25N     Longitude: 113 35W

WEATHER
 
SELECT A DAY
Number of Records: 172,853;   Date Range: 1/1/95 - 7/7/14
 
SHARE

PRINT THIS DATA

[ ← Previous Day ]
WEATHER ALMANAC - FEBRUARY 13, 2013
[ Next Day → ]
[ °C ]   °F
Weather ElementAverageHighLow
Temperature38.1 °F45 °F (2:53 pm)30.9 °F (1:53 am)
Dewpoint28.5 °F30.9 °F (2:53 pm)25 °F (1:53 am)
Humidity68.9 %79 % (1:53 am)56 % (3:53 pm)
Barometer30.24 in30.31 in (1:53 am)30.18 in (3:53 pm)
Wind Speed16.4 mph23 mph (11:53 am)
Wind Gust29.9 mph (11:53 am)
Weather ElementAverage
Visibility10 mi
Wind DirectionWSW (242.6 °)

Weather ElementTotal
Precipitation---
Heating Degree Days27.1 (Base 65)
Averaged from 23 records on February 13, 2013
WEATHER CONDITIONS BREAKOUT
WIND DIRECTION BREAKOUT
WEATHER BY HOUR - FEBRUARY 13, 2013
[ °C ]   °F
Local TimeTemperatureDewpointHumidityBarometerVisibilityWind DirectionWind SpeedGust SpeedPrecipitationEventsConditions
1:53 AM30.9 °F25.0 °F79 %30.31 in10.0 miSW (230°)8.1 mphClear
2:53 AM34.0 °F25.0 °F70 %30.31 in10.0 miSW (230°)16.1 mphClear
3:53 AM35.1 °F26.1 °F70 %30.29 in10.0 miSW (230°)12.7 mph23.0 mphOvercast
4:53 AM34.0 °F27.0 °F75 %30.28 in10.0 miSW (220°)8.1 mphOvercast
5:53 AM35.1 °F27.0 °F72 %30.28 in10.0 miWSW (240°)15.0 mphOvercast
6:53 AM35.1 °F27.0 °F72 %30.28 in10.0 miWSW (250°)17.3 mph26.5 mphOvercast
7:53 AM36.0 °F27.0 °F70 %30.28 in10.0 miWSW (250°)19.6 mph26.5 mphOvercast
8:53 AM37.0 °F28.0 °F70 %30.28 in10.0 miWSW (240°)20.7 mph27.6 mphClear
9:53 AM39.0 °F28.9 °F67 %30.28 in10.0 miWSW (250°)19.6 mph24.2 mphClear
10:53 AM39.0 °F28.9 °F67 %30.29 in10.0 miWSW (240°)15.0 mph20.7 mphOvercast
11:53 AM42.1 °F30.0 °F62 %30.27 in10.0 miWSW (250°)23.0 mph29.9 mphClear
12:53 PM43.0 °F30.0 °F60 %30.25 in10.0 miWSW (240°)18.4 mph25.3 mphClear
1:53 PM43.0 °F30.0 °F60 %30.23 in10.0 miWSW (250°)18.4 mph28.8 mphMostly Cloudy
2:53 PM45.0 °F30.9 °F58 %30.19 in10.0 miWSW (250°)17.3 mph28.8 mphClear
3:53 PM45.0 °F30.0 °F56 %30.18 in10.0 miWest (260°)12.7 mph26.5 mphClear
4:53 PM43.0 °F30.9 °F62 %30.18 in10.0 miWSW (250°)17.3 mph21.9 mphClear
5:53 PM39.0 °F30.9 °F73 %30.19 in10.0 miWSW (250°)15.0 mphClear
6:53 PM37.0 °F30.0 °F76 %30.21 in10.0 miWSW (240°)13.8 mphClear
7:53 PM37.9 °F30.0 °F73 %30.21 in10.0 miSW (230°)12.7 mphOvercast
8:53 PM37.0 °F28.9 °F73 %30.20 in10.0 miSW (230°)15.0 mphOvercast
9:53 PM36.0 °F28.0 °F73 %30.19 in10.0 miWSW (250°)19.6 mphPartly Cloudy
10:53 PM36.0 °F28.0 °F73 %30.20 in10.0 miWSW (250°)19.6 mph27.6 mphClear
11:53 PM36.0 °F28.0 °F73 %30.19 in10.0 miWSW (250°)21.9 mph29.9 mphScattered Clouds
Hourly data recorded from KBYI, located miles away from Albion, Idaho







STORIES FROM OUR PARTNERS